📊 Raw Sensor Data
Showing records 33751 to 33775 of 84,797 total
| ID | Distance (ft) | Battery V | Battery A | Int Temp (°F) | Int Humid (%) | Ext Temp (°F) | Solar V | RSSI | SNR | Time Stamp |
|---|---|---|---|---|---|---|---|---|---|---|
| 51059 | 15.0 | 4.02 | 54 | 87 | 50 | 77 | 4.50 | -72 | 8 | 09/04/2025 06:15 PM |
| 51058 | 15.0 | 3.95 | 8 | 90 | 48 | 81 | 5.10 | -72 | 8 | 09/04/2025 06:00 PM |
| 51057 | 15.1 | 4.12 | 0 | 92 | 47 | 83 | 5.10 | -73 | 8 | 09/04/2025 05:30 PM |
| 51056 | 15.1 | 3.95 | 0 | 93 | 46 | 82 | 5.10 | -72 | 7 | 09/04/2025 05:15 PM |
| 51055 | 15.1 | 3.95 | 8 | 94 | 46 | 84 | 5.10 | -72 | 8 | 09/04/2025 05:00 PM |
| 51054 | 15.2 | 3.95 | 8 | 94 | 46 | 83 | 5.10 | -72 | 7 | 09/04/2025 04:45 PM |
| 51053 | 15.1 | 3.94 | 0 | 95 | 45 | 83 | 5.10 | -74 | 7 | 09/04/2025 04:30 PM |
| 51052 | 14.3 | 3.94 | 0 | 96 | 45 | 84 | 5.10 | -75 | 8 | 09/04/2025 04:15 PM |
| 51051 | 15.1 | 3.94 | 0 | 96 | 43 | 83 | 5.10 | -72 | 8 | 09/04/2025 03:45 PM |
| 51050 | 15.1 | 3.94 | 8 | 96 | 43 | 87 | 5.10 | -73 | 8 | 09/04/2025 03:30 PM |
| 51049 | 15.1 | 3.94 | 0 | 95 | 43 | 83 | 5.10 | -74 | 8 | 09/04/2025 03:15 PM |
| 51048 | 15.1 | 3.94 | 7 | 94 | 43 | 85 | 5.10 | -74 | 8 | 09/04/2025 03:00 PM |
| 51047 | 15.2 | 3.95 | 8 | 95 | 42 | 84 | 5.10 | -75 | 7 | 09/04/2025 02:45 PM |
| 51046 | 15.1 | 3.94 | 8 | 94 | 42 | 82 | 5.10 | -72 | 8 | 09/04/2025 02:30 PM |
| 51045 | 15.2 | 4.03 | 8 | 94 | 42 | 83 | 5.10 | -74 | 7 | 09/04/2025 02:15 PM |
| 51044 | 15.2 | 3.94 | 0 | 94 | 41 | 84 | 5.10 | -74 | 7 | 09/04/2025 02:00 PM |
| 51043 | 15.1 | 3.94 | 8 | 93 | 41 | 85 | 5.10 | -74 | 7 | 09/04/2025 01:45 PM |
| 51042 | 15.2 | 3.94 | 0 | 92 | 40 | 84 | 5.10 | -74 | 7 | 09/04/2025 01:30 PM |
| 51041 | 15.2 | 3.94 | 0 | 90 | 41 | 83 | 5.10 | -74 | 7 | 09/04/2025 01:15 PM |
| 51040 | 15.2 | 3.94 | 8 | 88 | 42 | 81 | 5.10 | -75 | 7 | 09/04/2025 01:00 PM |
| 51039 | 15.2 | 3.94 | 0 | 87 | 42 | 80 | 5.10 | -74 | 8 | 09/04/2025 12:45 PM |
| 51038 | 15.2 | 3.94 | 8 | 87 | 41 | 80 | 5.10 | -74 | 7 | 09/04/2025 12:30 PM |
| 51037 | 15.2 | 3.94 | 0 | 85 | 42 | 81 | 5.10 | -73 | 8 | 09/04/2025 12:15 PM |
| 51036 | 15.2 | 3.95 | 8 | 84 | 42 | 77 | 5.10 | -73 | 8 | 09/04/2025 12:00 PM |
| 51035 | 15.2 | 3.94 | 0 | 82 | 42 | 78 | 5.10 | -72 | 7 | 09/04/2025 11:45 AM |